Precipitable_Water
0.57 0.55 0.53 0.50 0.49 0.47 0.46 0.45 0.43 0.42 0.43 0.45 0.45 0.44 0.44 0.43 0.43 0.42 0.42 0.42 0.42 0.41 0.42 0.42 0.41 0.39 0.38 0.38 0.39 0.39 0.39 0.31 0.27 0.25 0.26 0.23 0.27 0.32 0.39 0.39 0.40 0.53 0.73 0.75 0.74 0.67 0.60 0.60 0.65 0.98 1.13 1.32 1.35 1.43 1.66 1.67 1.68 1.59 1.22 1.10 0.97 1.06 1.05 1.19 1.18 1.28 1.40 1.34 1.45 1.55 1.61 1.52 1.42 1.62 1.69 1.81 1.66 1.64 1.62 1.57 1.60 1.61 1.57 1.56 1.54 1.57 1.61 1.59
0.59 0.58 0.56 0.54 0.51 0.49 0.48 0.46 0.45 0.44 0.42 0.43 0.45 0.45 0.44 0.43 0.43 0.42 0.41 0.41 0.41 0.41 0.42 0.43 0.41 0.39 0.37 0.37 0.38 0.39 0.38 0.32 0.24 0.27 0.22 0.32 0.36 0.37 0.41 0.39 0.41 0.65 0.79 0.63 0.55 0.51 0.47 0.48 0.60 0.82 0.96 1.04 1.35 1.27 1.62 1.43 1.65 1.33 1.20 1.12 0.94 1.08 1.16 1.38 1.37 1.41 1.37 1.37 1.50 1.54 1.61 1.51 1.49 1.59 1.64 1.50 1.49 1.52 1.46 1.51 1.52 1.46 1.53 1.59 1.56 1.55 1.54 1.52
0.59 0.58 0.57 0.55 0.53 0.51 0.48 0.48 0.46 0.45 0.43 0.43 0.44 0.45 0.44 0.43 0.43 0.42 0.41 0.40 0.41 0.41 0.42 0.43 0.42 0.38 0.37 0.39 0.39 0.43 0.36 0.27 0.30 0.23 0.28 0.36 0.38 0.41 0.43 0.47 0.57 0.71 0.61 0.51 0.54 0.49 0.40 0.40 0.56 0.67 0.84 0.94 1.14 1.13 1.41 1.38 1.48 1.40 1.22 1.00 1.05 1.22 1.25 1.33 1.42 1.42 1.49 1.50 1.46 1.50 1.59 1.56 1.61 1.61 1.73 1.47 1.44 1.48 1.36 1.34 1.40 1.38 1.38 1.45 1.48 1.49 1.47 1.45
0.59 0.58 0.57 0.55 0.54 0.52 0.49 0.48 0.47 0.46 0.44 0.44 0.43 0.44 0.45 0.44 0.43 0.42 0.41 0.40 0.40 0.41 0.41 0.43 0.44 0.40 0.38 0.40 0.44 0.43 0.35 0.31 0.19 0.33 0.44 0.45 0.37 0.40 0.49 0.57 0.70 0.68 0.56 0.53 0.51 0.48 0.49 0.47 0.57 0.58 0.68 0.84 0.99 1.16 1.14 1.33 1.24 1.34 1.22 1.03 1.08 1.23 1.15 1.30 1.42 1.48 1.53 1.57 1.49 1.51 1.57 1.49 1.61 1.62 1.60 1.51 1.38 1.38 1.41 1.48 1.38 1.35 1.40 1.44 1.46 1.42 1.41 1.37
0.58 0.56 0.55 0.54 0.53 0.53 0.49 0.48 0.47 0.46 0.45 0.44 0.44 0.44 0.44 0.45 0.44 0.42 0.41 0.40 0.39 0.40 0.41 0.42 0.45 0.43 0.42 0.44 0.43 0.45 0.27 0.16 0.23 0.44 0.55 0.44 0.36 0.38 0.52 0.66 0.72 0.64 0.47 0.46 0.47 0.49 0.47 0.44 0.53 0.56 0.60 0.71 0.92 1.01 1.06 1.26 1.37 1.28 1.15 1.20 1.21 1.24 1.13 1.28 1.38 1.51 1.51 1.59 1.51 1.51 1.40 1.38 1.68 1.61 1.55 1.50 1.27 1.25 1.37 1.50 1.56 1.54 1.53 1.47 1.42 1.40 1.38 1.32
0.55 0.54 0.52 0.52 0.52 0.52 0.50 0.48 0.46 0.46 0.45 0.45 0.44 0.44 0.45 0.46 0.45 0.43 0.41 0.39 0.39 0.40 0.41 0.42 0.45 0.44 0.45 0.46 0.42 0.41 0.21 0.11 0.43 0.43 0.64 0.41 0.31 0.39 0.57 0.71 0.72 0.58 0.44 0.43 0.40 0.43 0.44 0.46 0.49 0.46 0.57 0.76 0.82 0.78 1.02 1.22 1.32 0.98 1.11 1.15 1.20 1.22 1.13 1.27 1.31 1.41 1.50 1.46 1.43 1.40 1.49 1.56 1.46 1.44 1.59 1.53 1.41 1.51 1.64 1.64 1.65 1.63 1.63 1.59 1.52 1.41 1.32 1.29
0.52 0.51 0.50 0.50 0.50 0.50 0.49 0.48 0.46 0.45 0.45 0.45 0.45 0.44 0.45 0.47 0.46 0.44 0.42 0.40 0.39 0.40 0.41 0.42 0.46 0.46 0.44 0.45 0.43 0.32 0.17 0.21 0.45 0.52 0.63 0.42 0.36 0.47 0.63 0.73 0.69 0.50 0.40 0.37 0.38 0.36 0.39 0.42 0.45 0.43 0.56 0.75 0.85 0.82 0.99 1.14 1.24 1.10 0.96 1.08 1.05 1.12 1.05 1.19 1.25 1.39 1.43 1.43 1.40 1.54 1.63 1.42 1.40 1.25 1.58 1.49 1.62 1.67 1.69 1.72 1.72 1.70 1.68 1.63 1.45 1.40 1.33 1.31
0.51 0.50 0.49 0.48 0.48 0.48 0.47 0.47 0.47 0.46 0.45 0.45 0.45 0.46 0.46 0.47 0.48 0.46 0.43 0.41 0.40 0.40 0.42 0.43 0.47 0.45 0.44 0.34 0.23 0.17 0.16 0.24 0.47 0.60 0.62 0.48 0.49 0.53 0.67 0.72 0.60 0.47 0.35 0.29 0.31 0.29 0.34 0.36 0.37 0.49 0.53 0.65 0.77 0.76 0.96 1.02 1.07 0.96 0.93 1.01 1.01 1.03 1.00 1.06 1.19 1.31 1.40 1.45 1.55 1.56 1.41 1.36 1.41 1.39 1.52 1.46 1.60 1.67 1.70 1.75 1.72 1.67 1.64 1.59 1.46 1.37 1.35 1.32
0.51 0.50 0.49 0.49 0.48 0.47 0.47 0.46 0.47 0.46 0.45 0.45 0.46 0.47 0.48 0.48 0.48 0.47 0.45 0.42 0.41 0.41 0.40 0.44 0.48 0.50 0.48 0.31 0.20 0.17 0.14 0.44 0.55 0.67 0.63 0.55 0.55 0.54 0.59 0.59 0.61 0.46 0.34 0.29 0.29 0.30 0.28 0.31 0.37 0.46 0.43 0.65 0.75 0.75 0.89 0.86 0.81 0.95 0.93 0.95 0.95 0.90 0.91 0.97 1.09 1.26 1.36 1.42 1.50 1.41 1.36 1.44 1.47 1.60 1.44 1.53 1.61 1.69 1.75 1.73 1.69 1.63 1.56 1.52 1.44 1.38 1.34 1.32
0.51 0.51 0.51 0.51 0.51 0.49 0.48 0.47 0.47 0.46 0.46 0.46 0.47 0.48 0.49 0.49 0.48 0.48 0.45 0.44 0.42 0.42 0.41 0.44 0.53 0.52 0.39 0.26 0.25 0.13 0.31 0.54 0.69 0.68 0.59 0.56 0.62 0.55 0.53 0.58 0.58 0.50 0.36 0.30 0.27 0.27 0.25 0.28 0.33 0.47 0.55 0.64 0.75 0.77 0.87 0.83 0.83 0.93 0.88 0.84 0.77 0.77 0.79 0.92 0.97 1.22 1.37 1.39 1.44 1.30 1.33 1.35 1.51 1.44 1.22 1.60 1.67 1.70 1.67 1.66 1.67 1.60 1.49 1.51 1.46 1.40 1.38 1.34
0.53 0.53 0.53 0.53 0.52 0.52 0.51 0.50 0.48 0.47 0.47 0.47 0.48 0.50 0.50 0.50 0.49 0.48 0.45 0.44 0.44 0.43 0.42 0.48 0.56 0.47 0.29 0.27 0.17 0.16 0.45 0.55 0.72 0.67 0.59 0.54 0.56 0.52 0.47 0.55 0.57 0.51 0.42 0.34 0.27 0.27 0.31 0.34 0.42 0.50 0.53 0.55 0.72 0.77 0.78 0.82 0.88 0.83 0.77 0.73 0.71 0.82 0.77 0.88 1.05 1.21 1.33 1.30 1.42 1.36 1.29 1.41 1.45 1.39 1.26 1.47 1.65 1.67 1.57 1.59 1.60 1.59 1.49 1.50 1.49 1.43 1.40 1.39
0.56 0.55 0.55 0.54 0.54 0.53 0.52 0.52 0.51 0.49 0.48 0.48 0.49 0.50 0.51 0.50 0.49 0.47 0.45 0.44 0.45 0.44 0.44 0.53 0.56 0.43 0.36 0.26 0.19 0.29 0.57 0.60 0.71 0.68 0.61 0.54 0.51 0.54 0.53 0.55 0.55 0.53 0.48 0.34 0.30 0.28 0.31 0.39 0.48 0.52 0.46 0.70 0.63 0.76 0.75 0.81 0.80 0.77 0.72 0.59 0.69 0.79 0.74 0.93 0.95 1.16 1.26 1.22 1.39 1.40 1.24 1.16 1.24 1.16 1.40 1.56 1.64 1.62 1.56 1.55 1.56 1.54 1.50 1.50 1.51 1.48 1.41 1.40
0.56 0.56 0.56 0.55 0.55 0.54 0.53 0.53 0.53 0.52 0.50 0.50 0.51 0.51 0.51 0.50 0.49 0.47 0.46 0.44 0.45 0.44 0.49 0.57 0.57 0.46 0.35 0.17 0.24 0.42 0.54 0.63 0.68 0.67 0.63 0.64 0.60 0.64 0.60 0.62 0.57 0.55 0.53 0.44 0.33 0.31 0.33 0.41 0.51 0.50 0.62 0.64 0.68 0.63 0.71 0.79 0.75 0.74 0.66 0.57 0.62 0.66 0.68 0.92 1.07 1.20 1.18 1.26 1.38 1.32 0.77 0.92 1.11 1.28 1.44 1.58 1.57 1.56 1.50 1.50 1.54 1.51 1.49 1.48 1.49 1.48 1.45 1.44
0.55 0.55 0.55 0.55 0.55 0.55 0.54 0.53 0.53 0.52 0.52 0.52 0.53 0.51 0.50 0.49 0.48 0.49 0.48 0.45 0.46 0.45 0.54 0.61 0.58 0.49 0.36 0.23 0.36 0.50 0.58 0.62 0.70 0.61 0.54 0.63 0.56 0.57 0.60 0.63 0.63 0.61 0.61 0.51 0.45 0.39 0.35 0.48 0.54 0.56 0.63 0.63 0.64 0.76 0.69 0.69 0.71 0.59 0.57 0.58 0.52 0.51 0.51 0.90 1.00 1.14 1.05 1.30 1.32 1.28 0.78 0.87 1.06 1.26 1.44 1.55 1.56 1.48 1.41 1.46 1.52 1.52 1.46 1.45 1.48 1.47 1.45 1.44
0.54 0.54 0.55 0.56 0.56 0.56 0.56 0.54 0.53 0.51 0.52 0.53 0.54 0.52 0.50 0.48 0.52 0.52 0.48 0.44 0.46 0.50 0.59 0.65 0.61 0.46 0.33 0.30 0.48 0.59 0.69 0.63 0.50 0.49 0.56 0.47 0.50 0.50 0.53 0.61 0.59 0.62 0.62 0.56 0.43 0.41 0.41 0.54 0.58 0.54 0.54 0.69 0.67 0.63 0.59 0.58 0.60 0.58 0.48 0.41 0.51 0.49 0.57 0.82 1.05 1.11 0.91 1.15 1.30 1.16 0.78 0.81 1.00 1.18 1.40 1.53 1.52 1.49 1.40 1.44 1.49 1.50 1.46 1.42 1.45 1.45 1.45 1.44
0.55 0.55 0.56 0.55 0.55 0.56 0.56 0.55 0.54 0.53 0.53 0.53 0.53 0.52 0.53 0.54 0.54 0.54 0.47 0.46 0.51 0.55 0.59 0.47 0.52 0.49 0.34 0.25 0.39 0.60 0.50 0.35 0.34 0.49 0.56 0.51 0.47 0.44 0.58 0.60 0.62 0.62 0.62 0.56 0.48 0.42 0.43 0.49 0.46 0.54 0.61 0.57 0.52 0.53 0.53 0.50 0.51 0.52 0.45 0.39 0.40 0.47 0.46 0.60 0.90 1.11 1.12 1.12 1.19 1.05 0.76 0.85 0.87 1.15 1.33 1.48 1.46 1.45 1.40 1.42 1.46 1.47 1.47 1.43 1.42 1.44 1.45 1.44
0.59 0.59 0.57 0.56 0.56 0.55 0.56 0.55 0.54 0.53 0.54 0.54 0.54 0.55 0.59 0.55 0.55 0.52 0.48 0.53 0.54 0.59 0.52 0.40 0.52 0.51 0.24 0.45 0.52 0.41 0.34 0.37 0.40 0.39 0.51 0.55 0.54 0.51 0.56 0.57 0.55 0.56 0.60 0.56 0.48 0.41 0.42 0.39 0.43 0.50 0.55 0.45 0.49 0.53 0.43 0.39 0.40 0.43 0.45 0.39 0.40 0.39 0.41 0.44 0.82 1.01 1.08 1.04 0.93 1.05 0.86 0.83 0.95 1.12 1.25 1.37 1.41 1.40 1.36 1.38 1.43 1.46 1.46 1.45 1.43 1.42 1.42 1.41
0.60 0.59 0.58 0.58 0.58 0.56 0.55 0.54 0.54 0.52 0.54 0.55 0.54 0.54 0.55 0.59 0.59 0.56 0.55 0.57 0.61 0.57 0.59 0.62 0.59 0.39 0.31 0.41 0.31 0.33 0.37 0.35 0.34 0.35 0.43 0.56 0.57 0.54 0.51 0.51 0.57 0.57 0.55 0.43 0.41 0.34 0.40 0.39 0.48 0.38 0.42 0.44 0.46 0.45 0.34 0.27 0.35 0.38 0.39 0.36 0.36 0.37 0.42 0.47 0.50 0.79 0.94 0.97 0.85 0.91 0.85 0.84 0.94 1.05 1.16 1.27 1.37 1.34 1.34 1.37 1.39 1.43 1.44 1.45 1.43 1.40 1.40 1.41
0.59 0.58 0.58 0.58 0.58 0.58 0.57 0.55 0.53 0.51 0.53 0.55 0.55 0.61 0.60 0.60 0.58 0.57 0.46 0.46 0.33 0.26 0.19 0.28 0.34 0.24 0.21 0.34 0.45 0.40 0.35 0.34 0.32 0.29 0.31 0.41 0.50 0.54 0.49 0.56 0.57 0.50 0.39 0.30 0.29 0.35 0.46 0.49 0.51 0.41 0.30 0.34 0.38 0.41 0.37 0.40 0.42 0.41 0.40 0.38 0.35 0.33 0.34 0.35 0.52 0.70 0.82 0.77 0.76 0.78 0.71 0.73 0.85 0.92 1.04 1.16 1.26 1.25 1.31 1.38 1.39 1.42 1.45 1.44 1.42 1.40 1.37 1.38
0.59 0.59 0.58 0.58 0.58 0.58 0.58 0.57 0.53 0.50 0.52 0.50 0.47 0.48 0.39 0.29 0.27 0.30 0.41 0.39 0.27 0.25 0.26 0.30 0.39 0.45 0.48 0.45 0.41 0.39 0.39 0.32 0.25 0.26 0.29 0.35 0.36 0.38 0.38 0.47 0.49 0.48 0.34 0.24 0.29 0.36 0.52 0.39 0.34 0.29 0.31 0.37 0.43 0.45 0.46 0.47 0.46 0.43 0.42 0.40 0.36 0.34 0.36 0.40 0.40 0.45 0.71 0.69 0.65 0.69 0.68 0.67 0.72 0.84 0.92 1.05 1.16 1.18 1.24 1.28 1.31 1.36 1.39 1.40 1.40 1.39 1.37 1.37
0.56 0.57 0.58 0.58 0.58 0.58 0.58 0.58 0.56 0.51 0.52 0.49 0.44 0.34 0.24 0.26 0.19 0.18 0.25 0.26 0.29 0.31 0.29 0.31 0.35 0.40 0.39 0.40 0.40 0.34 0.27 0.25 0.26 0.26 0.30 0.38 0.32 0.30 0.26 0.38 0.40 0.35 0.32 0.33 0.31 0.48 0.51 0.37 0.34 0.39 0.42 0.44 0.46 0.46 0.47 0.46 0.46 0.43 0.39 0.38 0.36 0.34 0.32 0.39 0.38 0.42 0.61 0.58 0.55 0.64 0.64 0.64 0.67 0.78 0.90 1.02 1.09 1.07 1.10 1.16 1.26 1.30 1.36 1.39 1.39 1.38 1.37 1.38
0.54 0.55 0.56 0.56 0.57 0.57 0.58 0.57 0.56 0.53 0.53 0.49 0.40 0.31 0.34 0.38 0.41 0.41 0.33 0.20 0.26 0.28 0.28 0.32 0.38 0.40 0.43 0.41 0.41 0.38 0.32 0.24 0.23 0.23 0.32 0.33 0.28 0.27 0.25 0.33 0.34 0.32 0.36 0.38 0.38 0.40 0.38 0.30 0.39 0.47 0.51 0.51 0.49 0.47 0.45 0.42 0.41 0.41 0.37 0.36 0.34 0.34 0.36 0.39 0.40 0.40 0.49 0.56 0.48 0.57 0.54 0.54 0.59 0.69 0.86 0.94 0.97 1.04 1.10 1.11 1.17 1.26 1.30 1.35 1.38 1.41 1.41 1.40
0.55 0.55 0.55 0.55 0.55 0.57 0.57 0.58 0.55 0.54 0.48 0.43 0.36 0.36 0.37 0.47 0.53 0.48 0.40 0.29 0.23 0.28 0.25 0.27 0.29 0.36 0.36 0.39 0.38 0.37 0.27 0.23 0.20 0.22 0.28 0.32 0.27 0.28 0.28 0.29 0.30 0.36 0.36 0.36 0.29 0.32 0.29 0.34 0.44 0.53 0.53 0.49 0.46 0.45 0.41 0.39 0.40 0.37 0.34 0.32 0.29 0.35 0.31 0.29 0.35 0.37 0.46 0.49 0.41 0.44 0.44 0.45 0.54 0.66 0.76 0.93 0.97 1.02 1.13 1.19 1.25 1.33 1.31 1.33 1.35 1.39 1.41 1.39
0.55 0.55 0.55 0.55 0.54 0.54 0.57 0.56 0.55 0.49 0.44 0.45 0.42 0.40 0.49 0.54 0.52 0.48 0.35 0.22 0.17 0.21 0.23 0.25 0.32 0.35 0.35 0.32 0.34 0.31 0.26 0.24 0.23 0.22 0.33 0.31 0.26 0.30 0.29 0.31 0.29 0.33 0.31 0.34 0.35 0.34 0.31 0.40 0.49 0.51 0.51 0.48 0.43 0.44 0.39 0.34 0.29 0.34 0.35 0.32 0.30 0.31 0.33 0.34 0.32 0.35 0.37 0.45 0.46 0.41 0.37 0.38 0.43 0.45 0.58 0.79 0.99 1.03 1.14 1.23 1.28 1.36 1.40 1.42 1.46 1.47 1.49 1.46
0.56 0.55 0.55 0.55 0.53 0.56 0.55 0.55 0.42 0.42 0.48 0.47 0.44 0.50 0.53 0.54 0.53 0.49 0.33 0.24 0.20 0.19 0.32 0.26 0.36 0.35 0.36 0.37 0.33 0.25 0.25 0.25 0.24 0.30 0.36 0.32 0.30 0.30 0.32 0.37 0.34 0.28 0.31 0.34 0.35 0.35 0.37 0.45 0.47 0.45 0.46 0.47 0.44 0.40 0.39 0.35 0.27 0.29 0.34 0.34 0.32 0.32 0.31 0.32 0.35 0.32 0.29 0.28 0.32 0.36 0.24 0.26 0.44 0.49 0.51 0.63 0.85 0.93 1.07 1.12 1.18 1.27 1.33 1.37 1.37 1.40 1.48 1.52
0.56 0.56 0.56 0.56 0.56 0.55 0.56 0.38 0.39 0.48 0.44 0.39 0.45 0.52 0.53 0.55 0.53 0.47 0.33 0.18 0.12 0.18 0.25 0.18 0.32 0.26 0.34 0.28 0.27 0.24 0.24 0.23 0.27 0.31 0.37 0.35 0.37 0.31 0.34 0.34 0.37 0.28 0.31 0.32 0.31 0.33 0.34 0.42 0.43 0.40 0.40 0.40 0.39 0.37 0.41 0.39 0.29 0.25 0.27 0.35 0.35 0.33 0.31 0.30 0.30 0.29 0.23 0.22 0.32 0.39 0.27 0.24 0.47 0.47 0.57 0.63 0.74 0.82 0.99 1.04 1.13 1.23 1.29 1.32 1.34 1.40 1.44 1.48
0.58 0.58 0.58 0.57 0.58 0.58 0.38 0.31 0.47 0.47 0.35 0.41 0.53 0.56 0.56 0.55 0.55 0.45 0.26 0.16 0.13 0.20 0.18 0.24 0.20 0.25 0.25 0.26 0.22 0.22 0.16 0.21 0.30 0.37 0.36 0.38 0.34 0.39 0.32 0.30 0.32 0.34 0.37 0.38 0.29 0.25 0.31 0.35 0.37 0.39 0.37 0.36 0.35 0.31 0.37 0.36 0.29 0.23 0.33 0.33 0.33 0.32 0.29 0.28 0.30 0.28 0.25 0.29 0.30 0.33 0.34 0.28 0.27 0.45 0.67 0.74 0.75 0.80 0.90 0.99 1.08 1.18 1.24 1.28 1.34 1.39 1.43 1.48
0.60 0.61 0.60 0.60 0.60 0.58 0.44 0.46 0.44 0.38 0.41 0.50 0.57 0.57 0.58 0.54 0.50 0.40 0.24 0.09 0.10 0.23 0.17 0.19 0.22 0.29 0.25 0.24 0.23 0.19 0.21 0.26 0.25 0.31 0.35 0.37 0.38 0.38 0.36 0.33 0.32 0.31 0.33 0.34 0.19 0.29 0.28 0.30 0.33 0.33 0.32 0.32 0.29 0.32 0.36 0.37 0.30 0.29 0.33 0.33 0.31 0.32 0.30 0.32 0.30 0.26 0.26 0.24 0.20 0.30 0.41 0.30 0.30 0.46 0.72 0.77 0.69 0.75 0.80 0.91 1.01 1.12 1.21 1.26 1.32 1.38 1.43 1.48
0.63 0.62 0.62 0.62 0.61 0.59 0.58 0.49 0.46 0.40 0.51 0.56 0.58 0.58 0.54 0.51 0.38 0.28 0.19 0.10 0.23 0.22 0.26 0.19 0.28 0.23 0.24 0.22 0.20 0.20 0.21 0.27 0.25 0.28 0.32 0.33 0.33 0.33 0.32 0.31 0.35 0.33 0.29 0.33 0.25 0.27 0.29 0.31 0.32 0.30 0.29 0.27 0.32 0.33 0.37 0.37 0.29 0.36 0.38 0.37 0.36 0.35 0.33 0.32 0.29 0.27 0.25 0.21 0.18 0.23 0.37 0.27 0.29 0.39 0.59 0.75 0.71 0.70 0.74 0.86 0.97 1.08 1.17 1.22 1.27 1.35 1.42 1.48
0.64 0.63 0.63 0.63 0.60 0.57 0.56 0.57 0.48 0.54 0.58 0.60 0.60 0.57 0.52 0.40 0.30 0.20 0.13 0.10 0.25 0.17 0.22 0.22 0.21 0.19 0.22 0.18 0.17 0.20 0.23 0.26 0.30 0.29 0.30 0.28 0.29 0.31 0.32 0.34 0.30 0.29 0.26 0.27 0.27 0.27 0.27 0.29 0.29 0.26 0.24 0.26 0.28 0.32 0.35 0.35 0.34 0.38 0.37 0.34 0.33 0.33 0.31 0.33 0.30 0.27 0.24 0.18 0.19 0.23 0.31 0.31 0.24 0.32 0.47 0.50 0.56 0.64 0.72 0.89 0.99 1.09 1.16 1.22 1.27 1.31 1.36 1.43
0.65 0.65 0.65 0.66 0.52 0.54 0.54 0.43 0.49 0.58 0.61 0.62 0.59 0.51 0.43 0.35 0.24 0.18 0.10 0.18 0.26 0.22 0.26 0.22 0.21 0.22 0.19 0.17 0.15 0.21 0.23 0.25 0.26 0.26 0.24 0.28 0.25 0.27 0.26 0.27 0.30 0.26 0.26 0.25 0.27 0.27 0.27 0.26 0.25 0.27 0.29 0.29 0.30 0.28 0.31 0.32 0.33 0.34 0.31 0.28 0.28 0.27 0.29 0.28 0.27 0.28 0.20 0.17 0.21 0.25 0.25 0.33 0.20 0.23 0.44 0.62 0.71 0.82 0.87 0.77 0.81 0.97 1.06 1.13 1.22 1.29 1.33 1.39
0.67 0.68 0.69 0.66 0.66 0.68 0.45 0.41 0.53 0.62 0.63 0.62 0.53 0.43 0.36 0.19 0.22 0.14 0.14 0.30 0.18 0.22 0.23 0.22 0.25 0.23 0.20 0.21 0.19 0.20 0.21 0.24 0.27 0.25 0.24 0.23 0.21 0.21 0.22 0.20 0.24 0.20 0.21 0.22 0.23 0.28 0.26 0.26 0.26 0.26 0.31 0.29 0.27 0.26 0.26 0.28 0.30 0.29 0.29 0.28 0.21 0.20 0.20 0.17 0.21 0.18 0.18 0.18 0.21 0.23 0.26 0.28 0.28 0.28 0.45 0.54 0.62 0.63 0.67 0.84 0.94 0.96 0.98 1.09 1.19 1.26 1.32 1.37
0.68 0.68 0.69 0.67 0.69 0.61 0.61 0.62 0.66 0.64 0.64 0.59 0.50 0.42 0.29 0.17 0.12 0.20 0.19 0.23 0.20 0.27 0.25 0.30 0.26 0.24 0.22 0.20 0.20 0.23 0.25 0.21 0.27 0.26 0.26 0.24 0.22 0.22 0.24 0.23 0.24 0.22 0.19 0.24 0.23 0.24 0.26 0.27 0.27 0.26 0.27 0.30 0.28 0.24 0.22 0.22 0.27 0.27 0.25 0.24 0.20 0.16 0.14 0.14 0.17 0.20 0.21 0.23 0.25 0.22 0.25 0.20 0.26 0.38 0.48 0.48 0.63 0.75 0.70 0.66 0.77 0.96 1.07 1.11 1.14 1.22 1.30 1.36
0.68 0.70 0.64 0.68 0.69 0.68 0.69 0.72 0.69 0.69 0.61 0.56 0.46 0.33 0.24 0.15 0.16 0.26 0.21 0.23 0.24 0.30 0.29 0.27 0.26 0.25 0.22 0.20 0.21 0.23 0.21 0.26 0.26 0.25 0.25 0.23 0.23 0.20 0.22 0.24 0.24 0.22 0.23 0.24 0.23 0.24 0.21 0.21 0.24 0.25 0.22 0.28 0.27 0.26 0.25 0.24 0.25 0.28 0.31 0.27 0.23 0.20 0.15 0.13 0.16 0.15 0.17 0.19 0.23 0.26 0.20 0.17 0.18 0.38 0.53 0.57 0.66 0.78 0.78 0.76 0.77 0.86 1.00 1.14 1.25 1.30 1.32 1.35
0.72 0.71 0.69 0.68 0.69 0.70 0.72 0.73 0.71 0.69 0.58 0.47 0.36 0.26 0.18 0.17 0.22 0.21 0.21 0.24 0.27 0.29 0.27 0.29 0.25 0.23 0.22 0.23 0.24 0.25 0.25 0.22 0.28 0.26 0.25 0.23 0.21 0.22 0.21 0.22 0.25 0.25 0.23 0.19 0.24 0.24 0.23 0.23 0.25 0.29 0.28 0.28 0.26 0.29 0.30 0.27 0.27 0.29 0.30 0.31 0.25 0.23 0.26 0.17 0.19 0.19 0.20 0.20 0.20 0.22 0.20 0.25 0.29 0.55 0.60 0.58 0.64 0.71 0.74 0.73 0.77 0.83 0.92 1.03 1.12 1.21 1.29 1.34
0.72 0.63 0.68 0.60 0.61 0.66 0.74 0.72 0.70 0.66 0.49 0.37 0.28 0.22 0.20 0.22 0.21 0.26 0.24 0.30 0.29 0.26 0.27 0.28 0.26 0.23 0.22 0.23 0.25 0.25 0.28 0.25 0.25 0.26 0.24 0.25 0.26 0.24 0.26 0.25 0.24 0.26 0.22 0.18 0.22 0.21 0.24 0.22 0.28 0.28 0.29 0.28 0.28 0.29 0.29 0.31 0.22 0.28 0.27 0.22 0.24 0.30 0.27 0.22 0.22 0.24 0.23 0.21 0.19 0.27 0.23 0.27 0.35 0.40 0.55 0.54 0.54 0.61 0.67 0.69 0.72 0.79 0.89 0.97 1.04 1.13 1.21 1.30
0.59 0.63 0.53 0.57 0.57 0.67 0.71 0.72 0.68 0.57 0.46 0.35 0.28 0.23 0.28 0.27 0.30 0.29 0.30 0.28 0.29 0.29 0.27 0.23 0.24 0.23 0.21 0.21 0.23 0.24 0.26 0.27 0.26 0.25 0.21 0.26 0.24 0.27 0.26 0.27 0.29 0.27 0.28 0.24 0.21 0.27 0.21 0.22 0.27 0.27 0.24 0.29 0.32 0.31 0.31 0.32 0.33 0.30 0.23 0.26 0.30 0.32 0.30 0.23 0.17 0.19 0.18 0.17 0.19 0.26 0.24 0.27 0.25 0.20 0.45 0.48 0.47 0.54 0.62 0.67 0.73 0.77 0.83 0.87 0.92 1.00 1.13 1.21
0.58 0.57 0.57 0.54 0.58 0.67 0.72 0.71 0.63 0.51 0.43 0.35 0.28 0.29 0.32 0.28 0.32 0.31 0.32 0.31 0.31 0.30 0.27 0.25 0.26 0.28 0.23 0.23 0.23 0.25 0.26 0.23 0.25 0.25 0.23 0.26 0.22 0.33 0.29 0.28 0.31 0.30 0.29 0.30 0.23 0.24 0.26 0.20 0.24 0.27 0.27 0.28 0.32 0.31 0.29 0.33 0.34 0.31 0.28 0.33 0.24 0.20 0.19 0.24 0.21 0.15 0.15 0.15 0.19 0.26 0.31 0.31 0.30 0.31 0.41 0.44 0.45 0.51 0.61 0.67 0.69 0.70 0.76 0.78 0.81 0.91 0.99 1.10
0.58 0.52 0.43 0.52 0.62 0.65 0.68 0.67 0.54 0.44 0.40 0.32 0.31 0.28 0.32 0.32 0.34 0.33 0.34 0.33 0.33 0.30 0.26 0.27 0.26 0.28 0.27 0.25 0.27 0.28 0.27 0.22 0.27 0.25 0.22 0.26 0.21 0.31 0.31 0.32 0.29 0.32 0.31 0.30 0.25 0.27 0.26 0.20 0.21 0.27 0.26 0.28 0.30 0.28 0.23 0.27 0.32 0.34 0.35 0.30 0.31 0.27 0.22 0.20 0.20 0.22 0.19 0.16 0.17 0.21 0.27 0.23 0.35 0.38 0.44 0.50 0.55 0.62 0.64 0.65 0.66 0.73 0.78 0.80 0.81 0.82 0.86 0.92
0.47 0.44 0.39 0.56 0.62 0.65 0.66 0.58 0.47 0.42 0.37 0.32 0.35 0.34 0.37 0.33 0.35 0.36 0.36 0.34 0.31 0.29 0.27 0.28 0.29 0.28 0.29 0.29 0.29 0.26 0.29 0.27 0.26 0.27 0.26 0.29 0.25 0.33 0.30 0.34 0.31 0.31 0.32 0.30 0.28 0.31 0.23 0.26 0.19 0.23 0.29 0.27 0.23 0.28 0.26 0.27 0.26 0.28 0.28 0.28 0.28 0.26 0.29 0.27 0.26 0.22 0.19 0.18 0.17 0.19 0.19 0.28 0.39 0.52 0.55 0.57 0.62 0.71 0.70 0.68 0.71 0.75 0.80 0.83 0.84 0.83 0.83 0.82
0.54 0.40 0.39 0.57 0.60 0.62 0.59 0.47 0.41 0.36 0.36 0.37 0.37 0.38 0.39 0.36 0.36 0.37 0.37 0.37 0.35 0.36 0.31 0.29 0.30 0.27 0.29 0.28 0.28 0.31 0.29 0.29 0.28 0.26 0.27 0.28 0.28 0.23 0.33 0.34 0.34 0.30 0.32 0.28 0.26 0.28 0.23 0.23 0.20 0.23 0.24 0.24 0.26 0.31 0.30 0.30 0.30 0.29 0.28 0.27 0.28 0.25 0.23 0.20 0.18 0.27 0.24 0.20 0.18 0.18 0.18 0.30 0.50 0.65 0.69 0.67 0.72 0.76 0.79 0.76 0.73 0.77 0.81 0.84 0.85 0.86 0.84 0.82
0.39 0.32 0.36 0.55 0.57 0.54 0.45 0.36 0.36 0.40 0.35 0.34 0.33 0.36 0.36 0.42 0.38 0.39 0.38 0.38 0.36 0.35 0.38 0.34 0.34 0.32 0.31 0.30 0.30 0.30 0.28 0.28 0.28 0.27 0.29 0.26 0.31 0.30 0.34 0.38 0.36 0.36 0.29 0.25 0.25 0.30 0.28 0.26 0.22 0.21 0.24 0.25 0.28 0.31 0.33 0.33 0.33 0.32 0.31 0.29 0.30 0.29 0.27 0.23 0.18 0.21 0.25 0.25 0.28 0.27 0.22 0.29 0.58 0.68 0.74 0.72 0.73 0.75 0.80 0.81 0.76 0.79 0.84 0.87 0.91 0.90 0.89 0.88
0.38 0.35 0.48 0.53 0.52 0.46 0.38 0.31 0.32 0.32 0.33 0.36 0.41 0.40 0.41 0.39 0.38 0.40 0.37 0.40 0.35 0.37 0.35 0.33 0.33 0.31 0.34 0.33 0.32 0.31 0.31 0.27 0.29 0.27 0.29 0.30 0.31 0.34 0.36 0.36 0.36 0.34 0.33 0.29 0.30 0.29 0.34 0.23 0.20 0.22 0.27 0.30 0.31 0.33 0.34 0.33 0.32 0.30 0.31 0.32 0.30 0.28 0.28 0.26 0.26 0.27 0.23 0.23 0.23 0.25 0.21 0.29 0.52 0.68 0.74 0.78 0.76 0.74 0.76 0.80 0.78 0.79 0.84 0.90 0.92 0.91 0.89 0.90
0.40 0.39 0.42 0.49 0.52 0.44 0.35 0.25 0.26 0.28 0.30 0.32 0.32 0.31 0.36 0.36 0.35 0.35 0.35 0.37 0.34 0.34 0.34 0.35 0.36 0.37 0.34 0.37 0.34 0.30 0.34 0.25 0.32 0.30 0.28 0.32 0.29 0.37 0.35 0.35 0.35 0.30 0.31 0.28 0.25 0.28 0.20 0.22 0.19 0.17 0.19 0.23 0.25 0.28 0.28 0.31 0.31 0.29 0.29 0.31 0.31 0.31 0.31 0.32 0.32 0.33 0.24 0.24 0.23 0.23 0.18 0.25 0.39 0.54 0.69 0.75 0.73 0.68 0.67 0.73 0.79 0.76 0.81 0.87 0.91 0.93 0.92 0.92
0.42 0.45 0.44 0.44 0.48 0.42 0.30 0.32 0.30 0.28 0.29 0.29 0.28 0.28 0.28 0.29 0.35 0.35 0.35 0.33 0.34 0.33 0.33 0.34 0.37 0.38 0.35 0.37 0.34 0.35 0.35 0.31 0.28 0.34 0.32 0.32 0.30 0.36 0.34 0.33 0.35 0.31 0.34 0.36 0.31 0.32 0.21 0.21 0.18 0.14 0.13 0.13 0.14 0.16 0.18 0.21 0.25 0.28 0.30 0.31 0.32 0.31 0.30 0.29 0.25 0.27 0.22 0.24 0.25 0.24 0.23 0.27 0.31 0.40 0.59 0.68 0.67 0.66 0.68 0.70 0.76 0.82 0.81 0.85 0.91 0.95 0.95 0.94
0.36 0.28 0.37 0.38 0.42 0.40 0.39 0.40 0.35 0.30 0.28 0.29 0.27 0.28 0.30 0.26 0.30 0.34 0.33 0.31 0.33 0.32 0.33 0.34 0.36 0.37 0.34 0.33 0.30 0.31 0.31 0.34 0.29 0.29 0.30 0.29 0.30 0.32 0.33 0.32 0.32 0.33 0.32 0.32 0.31 0.28 0.22 0.23 0.20 0.17 0.15 0.14 0.17 0.21 0.26 0.28 0.27 0.23 0.26 0.28 0.29 0.31 0.31 0.30 0.29 0.26 0.23 0.24 0.23 0.25 0.25 0.26 0.27 0.31 0.49 0.58 0.63 0.64 0.64 0.67 0.70 0.75 0.83 0.87 0.93 0.97 0.99 0.99
0.44 0.32 0.35 0.29 0.41 0.36 0.35 0.37 0.34 0.34 0.30 0.34 0.25 0.29 0.25 0.27 0.28 0.28 0.33 0.26 0.31 0.29 0.29 0.31 0.31 0.29 0.30 0.30 0.29 0.28 0.30 0.29 0.31 0.29 0.28 0.28 0.30 0.31 0.33 0.31 0.29 0.30 0.31 0.27 0.29 0.25 0.22 0.18 0.21 0.20 0.19 0.20 0.22 0.22 0.25 0.25 0.22 0.25 0.25 0.25 0.27 0.28 0.29 0.27 0.26 0.24 0.27 0.24 0.21 0.27 0.30 0.27 0.26 0.32 0.48 0.53 0.59 0.65 0.68 0.68 0.71 0.74 0.79 0.84 0.88 0.95 0.99 1.01
0.32 0.37 0.43 0.40 0.32 0.27 0.30 0.30 0.35 0.32 0.34 0.33 0.29 0.32 0.27 0.26 0.26 0.24 0.29 0.31 0.32 0.31 0.25 0.27 0.29 0.30 0.29 0.28 0.28 0.25 0.27 0.27 0.27 0.24 0.28 0.28 0.27 0.28 0.27 0.29 0.25 0.28 0.27 0.23 0.26 0.21 0.18 0.15 0.21 0.19 0.17 0.20 0.22 0.23 0.25 0.24 0.23 0.23 0.24 0.24 0.23 0.26 0.26 0.25 0.26 0.28 0.27 0.23 0.22 0.25 0.29 0.28 0.29 0.41 0.50 0.55 0.59 0.62 0.68 0.70 0.75 0.79 0.80 0.85 0.87 0.92 0.97 0.97
0.41 0.39 0.38 0.45 0.29 0.33 0.33 0.34 0.36 0.33 0.31 0.32 0.28 0.29 0.26 0.26 0.25 0.28 0.28 0.27 0.28 0.28 0.28 0.21 0.24 0.27 0.27 0.29 0.26 0.23 0.25 0.20 0.21 0.26 0.25 0.24 0.23 0.23 0.21 0.24 0.24 0.27 0.25 0.21 0.20 0.23 0.19 0.15 0.17 0.17 0.16 0.18 0.19 0.20 0.23 0.22 0.23 0.22 0.22 0.23 0.24 0.23 0.23 0.25 0.25 0.27 0.28 0.27 0.28 0.29 0.31 0.31 0.37 0.48 0.52 0.57 0.66 0.66 0.68 0.74 0.76 0.73 0.77 0.83 0.87 0.87 0.93 1.01
0.30 0.31 0.28 0.37 0.34 0.31 0.32 0.32 0.30 0.28 0.26 0.30 0.25 0.28 0.28 0.26 0.25 0.27 0.30 0.28 0.24 0.25 0.31 0.24 0.25 0.26 0.26 0.25 0.24 0.21 0.23 0.24 0.22 0.21 0.25 0.24 0.22 0.22 0.20 0.21 0.20 0.24 0.24 0.19 0.20 0.22 0.16 0.15 0.19 0.16 0.13 0.14 0.18 0.19 0.20 0.20 0.20 0.19 0.21 0.22 0.22 0.23 0.23 0.24 0.24 0.26 0.29 0.29 0.31 0.34 0.33 0.32 0.50 0.59 0.59 0.64 0.68 0.72 0.70 0.69 0.69 0.74 0.78 0.79 0.82 0.88 0.90 0.95
0.45 0.49 0.46 0.29 0.24 0.28 0.30 0.28 0.27 0.25 0.22 0.25 0.23 0.26 0.27 0.26 0.25 0.29 0.28 0.33 0.27 0.25 0.27 0.25 0.27 0.26 0.27 0.25 0.24 0.23 0.26 0.25 0.24 0.23 0.24 0.22 0.17 0.22 0.19 0.21 0.25 0.21 0.22 0.21 0.21 0.21 0.19 0.15 0.19 0.15 0.10 0.11 0.15 0.16 0.16 0.17 0.17 0.16 0.17 0.18 0.20 0.21 0.20 0.22 0.22 0.25 0.26 0.26 0.30 0.31 0.30 0.35 0.54 0.63 0.65 0.65 0.66 0.66 0.64 0.65 0.69 0.73 0.78 0.79 0.76 0.83 0.90 0.92
0.52 0.55 0.53 0.37 0.22 0.29 0.25 0.28 0.26 0.25 0.19 0.25 0.27 0.26 0.26 0.26 0.30 0.30 0.24 0.31 0.32 0.31 0.30 0.29 0.28 0.25 0.24 0.24 0.23 0.25 0.29 0.28 0.27 0.28 0.28 0.29 0.29 0.28 0.29 0.28 0.28 0.25 0.23 0.23 0.27 0.21 0.21 0.18 0.14 0.14 0.09 0.09 0.16 0.17 0.14 0.14 0.12 0.12 0.16 0.21 0.22 0.22 0.24 0.24 0.25 0.27 0.28 0.31 0.30 0.29 0.33 0.51 0.57 0.62 0.58 0.59 0.60 0.61 0.63 0.67 0.68 0.74 0.79 0.79 0.77 0.78 0.84 0.91
Wind_Speed
17 17 17 17 16 16 16 16 16 16 15 15 15 15 15 15 15 15 15 15 14 14 14 14 14 14 14 14 14 13 12 12 13 13 14 14 14 15 14 15 17 18 17 17 17 17 15 14 14 13 12 11 9 9 8 7 5 4 3 3 2 2 2 2 2 2 3 3 5 6 5 5 7 7 8 9 7 8 7 6 7 7 8 10 10 13 14 14
18 18 18 17 17 17 17 17 17 17 17 16 16 16 16 16 16 15 15 15 15 14 14 14 14 14 14 14 14 13 13 13 13 14 16 15 14 15 15 15 17 19 18 17 17 17 16 15 15 14 13 11 10 10 9 8 7 5 4 3 3 3 2 1 1 2 3 3 5 5 4 4 7 9 9 8 7 7 7 7 8 9 10 10 12 14 14 15
19 19 18 18 18 18 18 18 18 18 17 17 17 17 16 16 16 16 15 15 15 15 15 14 14 14 14 14 14 13 13 13 13 14 15 15 16 16 16 16 17 19 19 18 17 17 16 16 16 15 13 12 11 10 10 9 7 7 5 4 4 4 2 0 1 2 2 5 6 5 5 5 8 10 8 7 7 7 8 7 8 10 11 11 13 14 14 15
19 19 19 19 19 18 18 18 18 18 18 18 18 18 17 17 17 17 16 16 16 16 15 15 14 14 14 14 14 13 13 13 13 13 13 14 16 17 17 17 18 19 19 18 17 16 16 16 16 15 13 12 12 11 10 10 8 7 7 5 5 3 2 1 2 2 3 5 6 5 6 6 8 9 8 9 8 6 7 8 8 11 12 13 13 14 15 14
20 20 20 20 19 19 19 18 18 18 18 18 18 18 18 18 18 18 17 16 16 16 16 15 15 14 14 14 14 14 13 12 13 13 12 14 16 17 18 17 18 18 18 19 18 16 16 16 15 14 13 12 12 11 11 12 10 8 8 7 6 4 2 2 2 3 3 5 6 6 5 6 8 8 9 11 9 6 7 8 9 11 12 13 14 15 15 14
20 20 20 20 20 19 19 19 19 18 18 19 19 19 19 19 19 19 18 17 17 16 16 16 16 15 15 14 14 14 13 13 13 14 13 14 16 17 17 18 18 17 18 19 18 17 16 16 16 14 13 12 12 12 11 13 12 9 8 7 7 6 5 3 2 3 4 5 5 5 5 6 8 7 9 11 8 6 7 7 10 12 12 13 14 14 15 14
20 20 20 20 20 20 19 19 19 19 19 19 19 20 20 20 20 20 19 18 17 17 17 16 16 16 15 15 15 14 15 15 14 14 13 14 16 17 17 18 18 17 18 18 18 18 17 17 17 15 13 12 12 12 11 12 13 10 8 7 8 8 7 5 4 4 5 6 6 6 6 7 8 8 10 10 7 7 8 7 9 11 13 14 14 14 14 14
21 20 20 20 20 20 20 20 20 20 20 20 20 20 20 20 21 20 20 19 18 18 17 17 16 16 16 15 15 15 15 16 15 15 14 15 16 17 17 17 18 18 18 18 19 18 17 18 18 16 14 13 12 12 12 12 12 11 10 9 8 8 8 7 6 7 6 6 6 7 7 8 8 8 9 9 8 8 8 8 9 11 13 14 14 15 14 14
21 21 21 21 21 20 20 20 20 20 21 21 21 21 21 21 21 21 20 20 19 18 18 17 17 16 16 16 15 15 16 16 16 15 15 16 17 17 18 18 19 19 18 18 19 19 18 19 19 17 15 15 13 12 12 12 11 12 12 11 9 9 9 8 8 9 8 6 7 8 7 6 7 7 9 9 8 9 8 9 10 11 13 13 13 14 14 14
21 21 21 21 21 21 21 21 21 21 21 22 22 22 22 21 21 21 21 20 20 19 18 18 17 16 16 16 15 16 17 16 16 16 16 17 17 18 18 18 19 20 19 18 19 19 19 19 19 17 15 15 14 12 12 12 11 11 11 11 10 10 10 9 10 10 9 8 9 8 7 6 7 7 7 9 9 10 10 10 11 12 13 13 13 14 14 14
22 22 22 22 22 22 22 21 22 22 22 22 22 22 22 22 22 21 21 21 20 19 18 18 17 17 17 16 16 17 17 16 17 17 17 17 18 18 19 20 20 20 19 19 19 20 19 19 20 17 15 15 14 12 12 12 11 10 10 9 9 7 7 9 10 10 9 8 9 8 6 6 7 7 7 10 10 10 11 11 12 13 13 13 13 13 14 14
23 23 23 23 23 23 22 22 22 22 23 23 23 23 22 22 22 21 21 21 20 20 19 18 17 17 17 17 18 18 16 16 17 17 17 17 18 18 19 20 21 21 20 19 20 20 20 20 20 18 16 15 14 13 12 11 10 10 9 8 8 5 6 7 8 10 9 7 9 8 6 6 7 7 8 11 11 10 12 12 12 13 12 13 13 13 13 14
23 24 24 24 24 23 23 23 23 23 23 23 23 23 22 22 22 21 20 20 20 19 19 18 18 17 17 17 19 19 17 17 17 18 18 18 18 17 18 20 21 21 21 20 20 21 21 20 19 19 17 15 15 14 12 12 11 10 9 8 8 5 6 7 8 10 9 8 11 10 7 7 8 8 8 11 12 11 12 12 13 12 12 13 13 13 13 14
24 24 24 24 24 24 24 24 24 24 24 23 23 23 22 22 20 20 19 19 19 19 19 19 18 17 17 18 18 18 18 18 18 19 19 19 18 17 18 20 21 21 20 20 20 20 21 20 19 19 18 17 16 14 12 12 11 10 10 9 8 7 7 7 8 10 9 9 12 10 7 6 7 9 9 11 13 12 13 12 13 13 12 13 13 13 14 14
24 24 24 24 24 24 24 24 24 24 24 23 23 23 22 20 19 18 17 18 18 18 19 18 18 18 18 18 18 18 18 18 19 20 20 20 19 18 19 20 21 21 20 20 19 19 21 21 19 18 18 18 16 14 13 12 12 11 10 10 9 8 8 7 8 11 9 9 12 10 7 7 6 9 10 11 13 13 13 12 13 13 13 13 13 13 14 15
25 25 25 25 24 24 24 24 24 24 24 23 23 22 20 18 17 16 15 16 17 18 18 18 19 18 18 18 18 18 18 19 19 19 20 20 20 19 19 19 20 21 20 20 19 18 20 20 19 19 18 17 17 16 14 13 12 12 11 11 10 9 8 7 8 11 9 9 12 11 8 6 6 8 10 12 13 13 12 13 13 13 13 14 13 13 14 15
25 25 25 25 25 24 24 24 24 24 24 23 22 20 18 16 14 13 14 15 16 17 18 18 19 18 18 18 18 18 18 18 18 19 20 21 21 20 19 19 19 20 20 20 20 19 19 20 19 19 18 17 17 16 15 14 14 13 12 11 11 10 10 8 8 10 10 10 11 11 10 8 6 7 10 12 13 13 13 13 13 13 13 14 13 13 15 16
26 26 26 26 25 25 25 24 25 24 23 22 21 18 16 14 14 13 13 14 15 16 17 18 18 18 19 19 18 18 18 18 18 18 20 21 21 21 20 19 20 20 20 19 20 20 20 19 18 18 17 17 17 17 17 16 16 15 13 12 11 10 10 10 8 9 11 10 11 12 11 11 8 7 9 12 13 13 13 13 13 13 14 14 14 14 15 16
26 27 27 26 26 26 25 25 25 24 23 21 19 17 16 15 15 15 14 15 16 16 17 18 19 18 19 19 19 18 17 18 18 19 20 20 21 21 20 19 20 21 20 19 20 21 21 19 18 18 18 18 18 18 18 18 16 16 15 14 13 11 11 11 9 9 11 10 11 12 12 12 11 9 10 11 13 13 12 13 13 13 14 14 14 14 15 16
27 27 27 27 26 26 26 25 24 24 22 19 17 16 16 16 16 16 16 16 17 18 18 19 20 19 19 19 19 17 17 17 18 18 20 21 21 22 20 19 19 19 20 20 20 21 21 20 19 19 18 18 19 19 19 19 17 16 15 15 14 13 13 12 11 10 11 10 10 12 12 11 11 11 11 12 13 13 13 13 12 13 14 14 14 15 15 16
28 28 28 28 27 26 26 25 24 23 20 17 16 15 14 14 15 16 17 17 18 18 19 19 20 20 20 20 19 17 16 17 17 18 20 21 21 22 21 19 19 19 20 21 20 20 21 21 20 19 19 19 18 19 19 18 18 16 16 15 15 15 15 14 13 12 12 11 11 11 11 11 11 11 12 13 14 14 14 14 13 14 15 15 14 15 16 15
29 29 29 28 28 26 25 25 23 22 18 15 14 13 13 13 14 16 16 16 17 18 19 19 19 20 20 20 20 18 17 16 16 17 20 21 21 22 20 19 20 20 20 20 20 20 20 21 20 20 20 18 17 17 18 18 18 17 16 16 15 16 15 15 14 12 12 13 11 11 12 12 11 11 12 14 15 15 16 16 15 15 15 15 15 15 16 15
30 29 29 29 28 26 25 24 22 20 16 14 13 11 12 13 14 15 15 15 17 17 18 19 19 20 20 19 19 18 17 17 17 18 20 20 21 22 20 19 20 20 21 21 21 21 20 20 21 21 19 18 18 17 17 17 18 18 17 16 16 16 15 15 14 12 13 13 12 11 12 12 11 11 12 14 16 16 16 16 15 15 16 16 15 14 15 16
30 30 30 29 28 25 24 22 20 17 14 13 12 11 11 12 12 13 14 14 15 16 17 19 19 20 19 18 18 18 18 18 17 18 20 20 20 20 20 20 20 20 21 22 22 21 21 19 20 20 19 19 19 18 17 17 18 19 18 17 17 16 16 16 15 13 13 14 13 11 10 12 11 12 12 13 14 15 15 16 15 16 16 17 16 15 15 16
31 30 29 28 26 24 23 20 16 14 13 12 11 11 11 12 12 12 12 12 13 14 16 18 18 19 19 17 18 18 18 18 18 18 19 20 20 19 19 19 20 21 21 21 21 21 21 20 18 18 19 20 19 19 19 18 18 17 18 19 18 17 17 17 14 13 12 13 13 11 10 11 11 12 12 11 13 14 14 15 16 16 16 16 17 16 16 16
31 30 28 27 25 23 21 16 14 14 12 11 10 11 11 11 11 11 11 10 12 13 14 16 17 17 18 17 17 17 17 17 18 18 18 19 19 19 18 18 18 20 21 21 21 21 21 21 19 18 19 20 20 20 20 19 17 17 18 19 19 18 18 17 15 13 14 14 13 11 11 12 10 11 12 11 13 14 13 14 16 17 17 17 17 17 17 16
30 29 27 25 23 21 17 14 13 12 10 10 11 11 11 11 10 9 9 9 10 12 13 15 16 16 17 17 17 16 17 18 17 16 16 17 18 18 18 19 18 19 20 19 20 20 20 20 19 18 19 20 20 20 20 19 17 17 17 18 18 19 19 18 16 15 15 14 13 12 12 12 11 11 11 11 12 13 13 14 15 17 17 17 17 18 18 17
29 28 26 24 21 18 15 13 12 10 9 10 10 11 11 10 9 8 8 9 11 12 12 14 15 15 16 16 16 15 16 17 17 16 16 16 17 17 17 19 19 19 18 19 19 20 19 20 20 20 19 19 20 20 20 19 18 18 18 17 17 19 19 18 16 15 15 14 13 13 12 12 12 11 10 10 11 12 14 14 14 16 17 18 17 18 18 18
29 27 24 22 19 15 13 11 10 9 9 9 9 10 10 9 8 8 8 9 11 11 12 13 14 15 15 15 15 14 15 16 16 17 16 14 15 16 17 18 18 18 17 18 19 19 18 19 20 19 19 19 20 19 20 19 18 18 18 17 16 17 17 16 16 15 14 14 15 15 13 12 11 11 9 9 10 12 13 14 14 15 17 18 18 18 18 18
27 25 22 19 16 13 10 9 9 8 8 8 8 8 8 7 7 7 7 9 10 11 12 12 13 14 14 14 14 14 14 15 15 16 15 13 13 14 16 17 16 17 17 16 18 18 17 17 18 17 18 19 19 19 20 21 19 18 16 16 16 16 16 15 16 15 13 15 16 15 14 13 11 10 10 9 10 11 12 13 13 15 17 19 19 18 18 18
25 22 19 16 13 11 9 8 7 7 7 7 6 6 6 6 6 7 8 9 9 10 11 11 12 13 14 15 15 14 14 14 14 15 14 13 12 12 14 16 16 16 16 16 17 18 16 16 17 17 16 16 17 17 17 18 19 18 16 16 16 16 16 15 16 15 15 15 16 15 14 13 12 10 9 10 11 11 13 14 15 16 17 19 19 19 19 19
23 20 18 14 11 9 7 6 5 5 6 5 4 4 6 6 5 6 8 8 9 10 11 11 11 12 14 15 14 14 14 14 13 14 14 13 13 13 14 16 17 17 17 18 18 18 17 17 17 17 16 14 16 17 16 16 17 18 18 17 17 16 16 17 17 16 16 16 15 14 13 13 14 13 11 11 11 10 12 14 16 18 19 19 20 20 19 19
21 19 16 12 10 8 6 5 4 4 4 4 3 4 5 5 4 5 6 8 9 10 11 11 11 12 14 14 14 14 13 13 13 13 14 13 13 14 14 14 16 17 18 18 18 17 18 18 16 16 16 15 16 17 17 16 17 18 19 19 19 17 16 18 17 15 16 16 15 14 14 13 14 13 11 11 11 10 10 11 13 16 19 21 21 20 20 20
20 17 13 11 8 7 5 4 3 3 2 2 4 4 4 5 5 4 5 8 9 9 10 10 10 11 13 13 14 14 13 13 13 12 13 13 12 13 13 12 13 15 16 17 17 17 18 17 15 16 17 16 16 18 19 18 18 19 19 19 19 19 17 17 18 17 16 16 15 14 15 14 14 13 11 11 11 10 9 8 8 10 14 19 20 20 20 21
17 14 12 11 9 7 5 3 2 2 0 3 5 5 5 4 4 4 5 7 9 9 9 9 10 11 12 12 13 13 14 13 13 12 12 12 12 12 12 12 12 13 15 16 16 17 17 17 16 16 17 16 16 18 19 18 18 19 19 18 19 20 18 16 17 18 17 16 15 16 16 15 15 14 10 10 10 9 8 8 7 6 8 13 17 18 20 21
14 12 11 12 10 7 6 4 3 2 3 5 5 5 5 4 4 5 6 7 8 9 9 9 9 10 11 12 12 11 12 12 13 12 11 12 11 10 11 12 12 12 14 15 15 16 16 16 16 16 16 16 16 18 19 18 19 19 18 19 19 19 18 16 15 16 16 16 17 17 15 14 15 15 11 10 11 9 9 9 8 8 7 8 12 15 18 20
12 11 12 12 11 8 6 5 4 3 4 5 5 5 4 4 4 5 6 6 7 8 10 9 9 10 10 11 11 11 11 11 12 12 11 11 11 10 10 12 12 11 13 14 14 15 16 16 16 16 16 16 15 17 18 17 18 19 18 19 19 18 18 17 15 14 14 16 16 15 14 13 14 15 13 12 11 10 10 10 9 9 8 8 10 12 16 19
12 11 11 12 12 9 7 6 5 4 5 5 5 5 5 3 3 4 5 6 6 7 9 10 9 10 11 11 10 10 11 11 11 11 11 11 11 11 10 11 11 10 11 12 13 14 14 15 16 16 17 17 15 15 16 16 16 18 19 19 18 18 18 18 17 16 16 16 16 15 14 13 13 14 12 11 12 12 11 11 10 9 9 10 11 11 14 18
12 10 10 12 11 9 8 7 6 6 5 5 5 5 4 3 2 1 2 5 6 7 8 9 9 9 10 11 11 10 9 10 11 11 11 11 11 11 10 11 11 10 9 10 11 13 14 14 16 16 16 16 15 14 15 16 17 17 18 18 19 18 19 19 18 18 17 17 17 16 15 15 15 15 13 12 13 12 12 12 12 11 11 11 12 11 13 17
12 10 10 12 11 8 8 8 8 7 5 4 4 3 3 3 1 1 2 3 5 6 8 8 8 9 9 9 10 10 9 9 10 11 11 11 11 11 10 10 11 11 10 10 10 12 13 13 14 15 15 14 14 14 14 15 16 17 17 17 18 18 18 18 18 17 17 18 18 17 16 16 16 15 14 14 13 12 12 13 13 12 12 11 11 11 11 14
12 10 9 11 10 8 9 9 8 6 5 4 3 2 2 2 1 1 2 3 3 5 6 7 7 8 9 8 8 9 9 8 9 10 10 10 11 11 10 10 11 12 11 10 10 11 12 12 13 13 13 14 15 15 15 14 14 15 17 17 17 18 19 18 18 18 17 17 18 18 17 17 16 16 15 14 13 12 13 14 14 13 12 11 11 10 10 11
12 9 9 11 9 8 9 9 6 5 5 4 3 3 2 2 1 1 1 1 3 4 4 6 6 7 8 8 8 8 8 7 7 8 10 10 10 11 11 10 11 12 11 11 12 12 12 12 12 12 14 15 17 16 15 15 14 14 16 16 17 18 19 19 19 19 18 16 17 17 17 18 17 16 15 14 13 12 13 13 14 13 12 11 10 9 9 9
12 10 9 10 8 8 9 8 6 6 5 4 3 3 2 1 1 0 1 1 2 3 3 4 5 5 6 7 7 7 8 7 6 7 9 9 9 10 10 9 9 10 11 11 12 12 12 12 12 13 15 16 17 16 15 15 16 15 15 16 16 17 18 19 20 20 18 17 18 17 17 19 18 16 15 15 14 13 12 13 13 13 13 12 11 9 9 9
11 10 10 10 8 7 7 6 6 6 5 4 4 4 3 2 2 1 1 1 2 4 5 5 5 5 6 6 6 7 8 8 7 7 8 9 9 9 8 7 8 10 11 12 13 13 12 13 13 13 14 15 16 16 16 16 16 16 16 16 16 16 17 18 19 19 18 18 19 19 19 20 19 17 16 15 14 13 12 12 13 13 13 13 12 10 9 9
10 9 10 11 10 8 6 5 5 6 5 5 5 5 4 3 2 3 1 1 2 2 5 5 5 5 5 5 6 6 6 7 8 8 8 8 9 9 8 7 9 10 10 11 12 13 13 13 14 15 16 17 18 18 18 18 17 17 17 16 16 16 16 18 19 18 19 19 20 20 20 20 19 17 16 15 14 13 12 12 12 12 13 13 12 11 11 11
10 9 8 10 10 9 7 5 5 5 4 4 5 4 4 3 2 3 3 2 2 2 3 4 4 5 4 4 5 5 4 5 7 8 8 8 9 9 8 7 8 9 9 9 11 13 13 14 14 15 17 19 19 20 20 19 18 19 18 18 18 17 17 18 18 19 19 19 20 21 21 20 19 18 17 16 15 14 13 12 11 11 12 12 12 11 11 11
10 9 8 7 7 8 8 7 6 4 3 3 4 3 4 3 2 2 3 1 1 1 2 2 3 4 4 4 5 5 4 4 5 6 7 8 8 9 8 7 7 8 9 9 10 12 13 14 14 14 16 18 19 20 19 19 19 20 19 19 19 19 18 18 19 20 20 20 21 23 21 20 20 19 17 17 17 15 14 12 12 12 12 12 12 11 10 10
10 8 8 7 6 6 6 5 6 5 5 4 3 2 3 3 2 1 1 0 0 0 1 1 2 3 4 5 6 5 5 5 5 6 7 7 8 8 8 8 8 8 8 9 10 11 12 13 14 14 15 17 18 19 19 19 19 20 20 21 21 20 20 20 21 22 21 21 23 24 22 21 21 19 19 18 17 16 15 14 13 12 12 12 12 11 10 9
10 9 9 9 8 6 6 5 6 6 6 5 3 3 3 3 2 2 2 1 2 2 1 2 3 3 3 5 5 6 6 6 6 7 8 7 8 8 8 9 9 8 8 9 9 9 10 11 12 13 13 15 17 18 18 19 20 21 21 22 22 22 22 22 23 23 23 23 24 24 23 23 23 21 20 19 18 17 16 14 13 12 12 12 12 12 11 11
10 9 9 10 10 9 8 7 7 6 6 5 4 3 3 2 3 3 2 2 3 4 3 3 4 4 3 4 5 6 8 8 8 8 9 8 9 9 9 9 10 8 7 8 9 9 9 10 11 11 11 13 15 16 18 19 20 21 22 23 23 22 22 22 23 23 23 23 23 23 23 23 23 22 21 20 19 18 17 15 14 13 14 13 12 12 12 12
10 9 9 9 9 9 9 8 7 7 6 6 4 4 4 4 3 3 3 3 3 4 4 5 5 4 4 4 4 6 8 8 8 9 9 9 9 10 9 9 9 8 8 8 9 9 9 10 10 10 10 13 15 15 17 19 19 20 21 21 22 22 23 23 24 24 24 24 24 23 23 23 24 23 22 22 21 19 18 17 16 15 15 15 14 14 14 13
10 10 9 8 8 8 8 8 8 7 6 6 5 5 5 5 4 2 2 3 3 3 4 6 5 4 4 5 5 7 8 8 8 9 9 9 9 9 8 8 8 8 9 9 9 9 9 10 10 10 11 13 14 15 16 16 16 18 20 20 21 22 23 24 24 25 25 25 25 25 25 25 24 24 23 23 22 21 21 20 19 18 17 17 16 16 15 15
Wind_Direction
321 319 317 314 312 309 307 305 302 301 299 297 295 293 292 290 288 286 283 281 280 277 273 268 263 259 255 253 252 250 249 245 244 239 234 232 227 221 214 210 207 202 200 197 197 197 197 198 198 196 195 198 202 199 196 200 203 197 185 171 152 127 113 102 106 116 124 136 146 156 166 164 166 162 152 147 135 133 136 130 136 141 139 136 137 145 148 149
320 318 316 314 311 309 306 304 302 300 298 296 294 292 291 289 288 285 282 280 277 275 271 268 263 259 254 252 251 248 247 245 245 241 235 231 223 218 213 210 205 201 198 195 196 195 196 200 199 196 196 199 204 202 200 201 201 201 196 184 180 162 145 107 110 129 128 141 151 157 164 164 165 160 155 153 144 143 141 134 133 134 136 134 139 147 148 150
318 317 315 313 311 308 306 304 301 299 297 296 293 291 290 288 286 284 281 278 275 273 269 266 262 258 254 251 248 247 246 245 242 237 234 227 219 214 209 207 203 200 199 197 197 196 197 198 197 196 196 200 204 202 202 200 197 202 201 193 194 184 177 149 131 139 131 147 152 157 160 158 164 163 162 157 150 155 154 147 141 141 144 142 146 151 150 153
318 316 314 312 311 308 306 304 302 299 297 295 293 291 289 287 285 283 280 277 274 271 267 264 260 256 252 249 246 244 243 242 235 230 229 221 213 209 206 205 201 199 200 200 198 197 196 194 195 197 197 201 204 202 204 202 199 198 194 196 200 185 177 176 127 117 118 144 149 152 154 156 167 169 167 158 153 166 167 160 153 150 151 150 152 155 154 156
318 316 314 312 310 308 306 304 302 300 297 295 292 290 288 286 283 282 279 275 272 269 265 261 258 253 249 247 245 242 239 237 232 227 226 217 209 204 204 204 200 199 201 200 199 197 195 193 194 196 198 202 202 204 208 206 204 203 202 208 217 214 207 200 142 126 128 139 143 151 158 157 165 170 169 164 161 169 171 164 156 154 155 155 157 158 158 161
318 316 314 312 310 308 306 304 302 300 298 295 293 290 287 285 282 280 277 273 270 267 263 259 256 251 247 244 242 240 234 233 231 226 221 212 205 201 201 202 199 199 200 199 199 199 197 194 194 195 198 202 201 205 211 208 207 211 212 215 225 226 220 212 174 158 149 145 153 163 161 152 160 167 168 168 165 162 165 160 156 157 158 157 159 161 162 164
318 317 315 313 311 308 306 303 301 299 298 296 294 291 288 284 281 278 275 271 268 265 262 257 254 249 245 243 240 238 234 233 230 223 216 208 202 200 200 202 200 200 200 199 200 201 199 196 197 196 195 200 202 206 213 211 208 211 217 222 230 229 226 225 197 177 167 161 164 162 158 159 163 165 167 169 163 159 160 155 157 159 159 159 161 164 166 166
318 317 315 313 311 309 307 304 301 299 297 295 294 291 288 285 281 277 273 268 265 263 260 256 252 247 244 242 239 237 234 230 226 219 213 207 203 200 200 203 202 202 201 200 201 202 201 199 200 199 198 203 202 203 210 213 211 210 219 228 230 230 231 226 202 182 177 173 165 157 160 167 168 162 168 173 168 166 161 154 158 159 160 162 163 167 168 169
319 317 315 314 312 310 308 305 303 300 297 295 293 291 288 285 281 276 271 266 262 260 258 254 250 244 241 240 237 234 230 226 222 217 212 208 206 203 204 205 204 203 203 203 202 201 203 202 202 201 201 204 203 204 207 209 212 211 219 228 228 234 234 217 197 185 182 183 171 164 165 170 172 164 170 179 176 172 164 158 162 161 163 166 166 169 171 173
318 317 315 314 312 310 308 306 304 301 298 296 294 291 288 284 280 275 269 264 259 257 254 251 247 241 239 237 233 230 226 223 221 215 211 210 209 207 208 208 205 204 204 205 203 202 204 204 203 202 202 204 205 209 208 205 213 218 223 230 232 240 236 209 192 186 185 188 181 175 173 175 182 180 181 185 179 174 167 164 167 165 167 170 171 172 174 177
317 316 315 313 312 310 308 307 304 302 299 297 295 291 288 283 279 274 268 262 257 254 250 248 244 240 237 234 230 228 226 223 219 215 213 211 210 211 210 208 206 205 205 206 206 203 203 204 203 203 206 207 207 210 212 210 217 225 227 232 236 238 225 201 188 187 187 195 192 180 178 186 192 198 196 186 181 179 173 171 173 171 172 174 174 175 177 180
317 315 314 313 311 310 308 306 305 302 300 298 295 291 287 283 277 272 267 260 255 250 246 244 241 237 236 234 230 227 226 222 217 214 214 212 212 214 212 209 207 206 205 206 208 205 203 204 203 204 207 207 207 210 216 220 222 224 220 220 228 227 208 198 190 191 192 200 195 180 187 208 203 204 197 184 184 184 178 176 176 175 176 177 176 178 181 183
317 316 314 313 312 310 308 306 304 302 300 298 295 291 287 282 276 271 265 258 252 245 242 240 238 236 235 234 229 225 225 222 216 215 215 214 214 215 212 210 209 208 207 207 208 206 205 206 205 206 209 207 208 211 218 225 222 218 212 206 213 220 212 203 193 194 196 198 194 188 201 213 204 205 196 184 184 183 180 181 181 180 179 180 179 180 183 185
318 317 315 314 312 310 308 306 303 301 300 297 295 291 286 281 276 270 263 255 248 241 237 236 235 236 234 232 227 225 224 220 217 216 215 214 213 214 212 209 209 209 209 208 208 207 206 206 206 209 211 210 213 216 219 220 215 212 211 209 209 212 216 209 192 191 195 196 194 195 209 213 204 203 195 186 184 181 181 183 184 184 183 183 182 181 183 187
319 318 317 315 314 311 309 306 303 301 299 297 295 292 287 281 275 268 259 250 244 237 234 234 234 234 235 232 226 223 222 220 219 217 214 213 211 213 211 207 207 207 208 208 207 206 205 205 207 209 212 214 214 215 215 214 213 211 211 217 217 210 216 213 193 192 196 197 195 196 208 215 212 200 191 188 185 182 184 186 186 187 186 187 186 183 184 188
320 320 318 317 315 312 310 307 303 301 299 297 296 292 286 279 272 263 253 246 241 236 234 234 234 232 231 229 224 221 220 220 221 217 213 212 210 211 209 205 205 205 207 208 206 204 203 204 207 209 213 214 212 210 212 214 215 213 209 214 217 208 213 212 197 199 198 194 199 204 207 209 213 198 188 189 188 185 188 191 192 191 190 190 191 188 186 189
322 321 319 317 315 313 310 307 304 301 299 298 295 289 283 276 267 256 248 244 240 237 235 233 232 229 228 226 222 219 220 221 221 217 213 212 211 209 206 206 206 203 205 207 206 204 202 204 207 210 213 213 210 208 210 213 213 214 210 210 214 208 207 208 202 203 197 192 200 210 213 213 217 198 187 191 191 190 191 194 196 195 194 194 195 192 190 191
323 321 319 318 316 313 311 307 304 301 299 299 293 284 278 270 262 252 247 245 241 238 236 232 228 225 225 224 221 219 221 222 221 216 212 211 209 207 206 208 206 202 204 206 205 204 204 206 207 209 213 211 209 208 208 212 209 209 209 207 213 213 206 203 203 202 197 197 202 207 216 222 223 206 194 194 194 196 196 195 197 198 197 196 196 194 193 194
323 321 319 318 316 313 310 306 304 300 299 298 290 279 272 268 262 253 248 247 242 236 232 229 223 222 223 221 220 222 222 221 219 216 212 209 208 208 207 207 204 202 204 207 206 205 204 206 207 210 212 210 210 209 208 210 205 203 206 205 207 212 211 207 206 203 196 200 207 206 212 222 223 214 206 201 198 200 199 196 197 200 200 198 198 197 196 197
323 321 319 317 315 312 309 306 303 300 298 296 287 277 272 269 262 255 253 248 241 233 230 228 223 225 225 221 220 222 221 217 216 215 211 208 206 206 206 205 203 204 206 206 206 207 205 206 210 210 209 209 211 211 209 209 205 204 205 207 209 212 215 212 210 210 201 203 213 210 214 223 223 219 215 208 203 203 199 197 199 199 201 201 199 199 198 198
323 320 318 315 313 310 308 306 303 299 297 292 283 275 269 266 258 254 254 249 242 234 231 228 223 225 224 220 219 219 217 216 217 216 212 209 205 204 207 207 204 206 209 206 205 207 207 209 211 209 208 209 211 211 211 211 209 209 209 211 214 213 216 215 213 214 208 210 219 218 221 228 226 222 217 211 206 206 204 201 202 200 200 202 200 199 199 199
322 319 316 313 311 309 307 305 302 298 294 287 280 272 263 260 255 250 247 247 246 237 230 227 222 223 222 220 219 217 216 217 218 217 211 208 207 207 208 207 204 207 209 206 204 206 210 212 211 209 209 209 210 211 212 213 213 214 213 213 216 216 219 219 218 219 212 214 223 221 224 231 231 224 216 212 210 213 212 208 206 202 200 202 201 200 199 198
321 318 315 312 310 308 306 305 300 295 289 282 276 267 261 261 256 249 242 241 244 238 228 223 219 219 220 219 217 213 212 214 215 215 211 206 207 207 206 205 205 206 207 207 205 205 210 214 212 210 208 208 212 212 211 216 218 216 215 215 217 218 217 217 221 221 214 216 221 220 228 236 234 227 219 213 212 216 217 213 211 206 204 204 203 201 200 198
320 317 315 313 310 307 305 303 297 291 284 276 269 263 261 261 256 250 242 237 238 235 226 219 216 215 216 217 213 211 212 212 212 212 209 204 204 207 207 206 205 206 209 208 205 206 211 215 211 208 208 209 213 215 212 217 222 221 217 215 216 215 215 217 221 223 222 227 227 223 238 244 234 225 222 215 213 215 214 212 211 210 208 207 206 206 203 201
320 318 315 314 311 307 304 300 292 288 280 270 264 261 261 260 256 249 240 233 232 231 222 215 213 212 213 214 212 211 212 211 211 210 207 203 202 206 209 208 206 209 211 207 205 210 215 216 209 207 211 211 213 217 215 214 220 223 219 214 212 211 214 218 220 224 226 230 228 222 230 240 235 227 222 216 212 211 208 209 211 211 210 209 209 209 207 205
321 319 317 315 312 308 304 294 288 288 276 263 260 261 260 259 255 244 234 227 226 225 217 210 210 211 212 211 210 208 207 210 211 208 205 204 204 205 207 210 210 210 209 207 209 213 215 215 209 209 212 211 213 219 217 211 214 222 221 214 210 209 213 216 215 218 220 222 227 225 220 231 240 235 227 218 212 210 209 211 212 211 210 209 209 209 209 208
322 320 319 316 313 309 301 289 286 283 270 262 261 259 259 257 252 239 228 223 221 219 211 208 209 209 209 208 205 202 205 208 205 203 204 204 206 205 206 210 211 209 209 207 211 214 213 213 213 212 213 212 215 218 216 210 210 219 219 210 207 209 212 213 211 214 219 223 232 229 219 226 237 236 230 219 212 214 215 216 213 210 210 209 209 210 210 210
324 322 321 317 314 308 298 288 285 275 266 267 264 259 256 251 242 229 216 215 218 213 205 206 207 205 206 204 201 201 205 204 200 203 205 202 206 206 205 209 208 208 209 205 209 216 212 211 213 213 213 214 216 216 213 208 211 217 214 207 206 207 208 209 210 216 221 223 230 229 217 220 230 235 232 216 214 219 219 217 214 210 210 209 209 210 210 210
326 324 323 320 316 310 299 289 278 267 268 270 266 259 250 240 229 217 209 210 212 207 202 203 202 202 203 200 200 203 203 201 200 203 204 204 208 206 205 209 206 205 209 205 207 213 211 209 210 209 212 215 216 215 209 206 211 214 209 208 209 207 207 208 210 215 218 219 223 225 218 216 227 235 227 212 215 222 220 218 216 213 212 211 210 210 209 209
328 327 326 324 320 314 304 290 273 266 269 269 264 253 238 225 214 208 210 206 202 202 200 199 199 200 198 195 198 201 198 200 201 199 201 205 206 205 206 208 205 206 211 209 206 211 213 211 208 208 212 215 215 215 211 207 209 210 209 210 211 212 212 213 216 216 217 222 223 224 218 211 220 231 222 216 227 231 224 220 218 216 214 212 210 209 208 208
331 330 330 329 326 319 310 296 277 265 265 266 259 239 216 212 206 198 203 201 197 199 197 196 199 196 192 189 193 197 195 200 204 200 202 207 206 207 210 211 209 208 212 213 211 214 214 211 212 214 215 214 213 215 215 210 208 208 211 210 210 216 216 216 221 217 214 222 226 224 215 205 211 222 223 230 243 244 233 226 222 218 215 212 210 209 209 209
335 334 334 334 331 325 316 303 284 267 264 261 244 212 197 200 203 199 203 201 196 197 194 196 198 193 189 188 190 196 196 199 204 202 203 207 207 205 207 211 211 208 210 213 213 215 214 214 219 221 217 214 213 214 216 213 208 206 207 206 207 213 214 213 218 216 215 221 223 219 211 207 212 217 223 233 241 246 240 235 231 225 220 216 213 211 211 211
340 340 342 342 339 335 326 311 294 276 264 247 214 196 183 180 194 201 201 198 193 192 192 194 195 190 186 187 191 195 193 197 205 204 203 205 204 204 206 210 210 208 209 211 211 213 213 217 223 221 220 220 214 212 213 213 210 207 206 205 205 209 210 214 218 217 218 220 219 216 213 211 212 216 227 234 236 243 246 245 238 229 224 220 218 215 213 213
345 348 353 356 355 350 340 328 316 293 262 213 187 178 158 163 188 191 187 191 190 189 190 191 192 188 185 188 194 194 190 195 201 200 203 204 203 206 210 212 211 209 208 207 209 210 209 214 220 218 219 222 217 214 213 211 210 211 210 207 208 210 210 215 218 215 215 217 217 217 215 211 205 208 221 228 234 242 246 250 246 235 229 224 221 219 217 215
350 357 5 6 4 1 356 357 352 337 142 151 154 147 136 156 189 184 182 188 185 186 191 188 184 183 186 191 196 196 192 195 199 198 200 202 201 206 211 213 214 210 207 207 210 211 208 212 219 219 219 219 219 220 216 210 210 212 211 208 210 212 212 215 217 213 211 211 215 217 217 216 210 209 220 229 233 242 247 252 252 250 247 230 219 216 215 215
359 9 13 11 10 12 16 24 29 48 101 133 134 121 124 150 175 178 183 184 182 187 188 184 180 180 187 193 196 201 199 197 200 201 202 200 199 204 210 213 214 210 205 206 210 212 210 214 221 223 221 219 220 221 216 210 212 213 210 210 213 211 209 212 215 216 210 206 215 218 220 225 217 215 231 239 234 238 245 248 246 245 251 240 223 216 213 212
9 14 15 15 15 18 29 36 38 63 106 128 122 114 130 148 162 176 185 186 188 189 182 182 188 187 188 191 196 207 208 202 203 204 204 204 205 210 215 215 214 211 207 205 208 211 209 214 221 221 221 226 225 219 216 215 214 212 211 214 215 211 210 210 213 219 214 209 216 217 216 223 218 219 235 244 240 239 240 240 242 243 244 242 239 231 221 215
14 17 19 18 15 21 38 42 43 76 109 117 110 113 133 139 149 177 192 193 191 188 183 185 191 191 190 190 196 208 209 206 209 207 204 208 211 213 216 217 217 219 219 211 208 212 210 212 220 220 220 227 228 216 216 223 220 213 212 214 212 211 214 213 212 215 214 212 216 216 215 220 222 226 236 243 243 242 240 239 238 240 244 242 245 246 235 222
18 21 22 17 18 29 44 51 59 77 96 111 113 116 132 137 130 157 186 194 192 187 186 189 191 190 192 193 196 204 206 206 209 208 207 211 212 212 215 217 221 229 228 214 208 214 214 210 218 226 225 225 223 215 217 226 224 217 215 216 214 213 213 213 214 214 214 213 215 216 219 224 228 231 234 238 240 240 242 241 235 236 242 242 244 249 243 230
23 28 24 19 24 36 46 55 61 66 77 106 124 133 146 150 140 35 75 157 188 187 185 192 193 190 192 195 198 202 204 206 209 209 211 212 211 214 218 218 223 229 225 216 212 216 218 213 216 229 230 220 216 216 216 220 222 219 216 216 218 218 216 214 216 217 216 214 215 215 217 225 230 230 232 235 236 237 242 242 237 238 241 243 245 248 246 235
26 31 23 20 31 43 48 51 51 58 75 87 101 125 149 151 176 346 43 99 155 170 175 184 188 188 190 192 199 205 202 202 209 208 209 211 210 215 223 224 227 228 224 222 222 220 220 217 215 223 224 213 210 215 215 214 216 215 214 216 219 218 215 213 217 221 219 216 216 213 214 224 230 228 231 233 231 234 241 242 241 242 242 243 244 246 244 238
29 30 20 24 38 49 49 45 36 49 74 76 75 82 89 114 172 263 351 94 146 159 166 179 184 187 191 191 197 202 196 197 210 207 204 210 210 214 227 234 230 226 220 221 227 226 221 217 216 218 218 213 213 216 215 216 216 214 214 217 219 218 215 213 216 220 220 219 218 214 213 222 226 226 229 231 230 234 240 242 242 242 243 243 243 244 243 237
30 28 23 26 35 46 48 41 30 41 54 59 62 54 57 94 127 236 231 188 187 189 185 190 192 189 192 194 196 201 199 199 207 206 205 211 214 219 230 235 230 225 222 223 229 230 225 222 221 221 223 223 221 220 220 221 221 218 219 220 220 222 220 216 215 216 217 221 221 218 216 219 224 228 230 230 232 235 239 243 244 243 243 244 242 242 242 238
30 29 25 22 23 38 48 44 41 47 47 48 50 37 38 75 77 58 193 201 205 206 199 198 199 195 197 200 199 205 208 203 204 208 208 211 218 227 235 237 231 227 226 228 231 230 228 227 223 221 225 228 227 227 226 226 224 221 223 226 225 225 223 218 218 217 217 221 221 218 217 219 224 230 231 231 233 236 241 246 246 245 245 245 243 240 239 237
26 26 24 22 26 39 48 51 56 58 54 51 47 37 39 59 63 58 90 141 139 177 190 194 198 198 203 206 204 211 213 204 205 212 212 214 222 229 238 245 240 233 234 237 235 231 229 230 226 221 222 225 226 227 227 228 229 226 228 231 230 228 225 221 220 219 220 222 220 217 219 223 228 230 231 233 234 235 241 246 247 247 247 245 242 238 236 235
23 23 17 19 28 37 43 51 56 55 54 50 42 36 40 49 46 45 63 100 97 112 163 189 199 199 205 205 201 214 224 211 208 210 213 220 227 231 239 247 248 246 246 248 244 235 231 233 230 222 221 223 223 226 228 228 230 230 232 235 233 231 229 224 221 220 221 222 222 220 221 226 232 232 232 235 234 233 239 244 247 250 250 248 244 239 237 236
26 23 17 18 23 27 33 38 38 38 37 35 39 37 34 35 31 33 51 90 107 100 143 187 206 203 207 204 198 212 227 222 218 217 221 228 231 235 242 246 254 261 256 252 249 238 231 234 233 226 226 226 225 230 233 231 230 231 233 235 234 234 231 226 223 223 222 221 224 225 224 227 233 234 234 236 235 233 236 242 246 249 249 247 245 242 240 238
29 27 24 28 26 19 24 25 23 31 28 20 32 38 19 20 27 19 12 19 13 109 172 209 236 217 211 209 207 214 224 228 234 233 232 235 238 242 247 247 255 264 257 252 250 238 230 233 232 229 232 234 233 235 236 234 233 235 235 234 235 235 232 228 228 227 223 222 226 229 229 230 232 234 234 235 235 234 234 239 244 248 250 248 246 243 239 236
34 33 29 34 36 31 28 21 21 31 24 11 18 19 1 4 359 305 274 284 299 294 235 215 245 244 224 220 218 219 223 225 234 239 235 237 241 242 245 248 254 261 256 250 248 238 229 231 230 227 231 236 237 237 236 236 237 238 237 235 235 235 233 231 230 228 225 225 227 230 232 232 231 233 233 233 234 234 234 237 242 247 250 249 246 243 239 235
36 37 34 39 40 34 30 25 25 29 17 9 14 1 346 350 333 303 287 278 266 277 271 221 229 244 240 235 226 224 226 222 225 235 235 240 248 246 243 244 248 256 256 245 243 239 229 228 230 227 228 235 238 238 238 237 236 238 239 238 236 236 234 232 231 230 229 229 230 230 231 230 231 233 232 229 231 232 233 237 240 242 245 247 247 245 243 240
40 40 39 43 36 27 30 29 29 34 25 20 22 8 -0 355 329 303 301 298 267 264 260 230 226 246 256 251 236 231 233 228 229 236 236 240 246 246 246 244 241 247 253 246 244 243 233 231 235 231 230 235 237 238 241 240 238 238 239 239 236 233 233 233 233 232 230 231 232 231 230 230 231 233 232 229 230 231 233 236 237 237 240 244 246 246 245 244
38 37 37 43 34 23 29 30 28 36 33 24 27 27 23 15 2 359 337 318 306 282 255 232 229 248 257 257 252 246 243 241 244 248 247 247 248 246 247 246 240 242 245 245 248 248 239 236 239 237 234 238 239 240 242 243 241 238 236 235 233 232 233 234 234 234 232 232 232 232 231 231 233 234 232 231 231 231 233 235 235 235 237 240 243 245 244 245